Year,Month,Day,Hour,Minute,Value (Times are PST for insolation in W/m^2)
2015,05,26,00,00,0.00
2015,05,26,00,01,0.00
2015,05,26,00,02,0.00
2015,05,26,00,03,0.00
2015,05,26,00,04,0.00
2015,05,26,00,05,0.00
2015,05,26,00,06,0.00
2015,05,26,00,07,0.00
2015,05,26,00,08,0.00
2015,05,26,00,09,0.00
2015,05,26,00,10,0.00
2015,05,26,00,11,0.00
2015,05,26,00,12,0.00
2015,05,26,00,13,0.00
2015,05,26,00,14,0.00
2015,05,26,00,15,0.00
2015,05,26,00,16,0.00
2015,05,26,00,17,0.00
2015,05,26,00,18,0.00
2015,05,26,00,19,0.00
2015,05,26,00,20,0.00
2015,05,26,00,21,0.00
2015,05,26,00,22,0.00
2015,05,26,00,23,0.00
2015,05,26,00,24,0.00
2015,05,26,00,25,0.00
2015,05,26,00,26,0.00
2015,05,26,00,27,0.00
2015,05,26,00,28,0.00
2015,05,26,00,29,0.00
2015,05,26,00,30,0.00
2015,05,26,00,31,0.00
2015,05,26,00,32,0.00
2015,05,26,00,33,0.00
2015,05,26,00,34,0.00
2015,05,26,00,35,0.00
2015,05,26,00,36,0.00
2015,05,26,00,37,0.00
2015,05,26,00,38,0.00
2015,05,26,00,39,0.00
2015,05,26,00,40,0.00
2015,05,26,00,41,0.00
2015,05,26,00,42,0.00
2015,05,26,00,43,0.00
2015,05,26,00,44,0.00
2015,05,26,00,45,0.00
2015,05,26,00,46,0.00
2015,05,26,00,47,0.00
2015,05,26,00,48,0.00
2015,05,26,00,49,0.00
2015,05,26,00,50,0.00
2015,05,26,00,51,0.00
2015,05,26,00,52,0.00
2015,05,26,00,53,0.00
2015,05,26,00,54,0.00
2015,05,26,00,55,0.00
2015,05,26,00,56,0.00
2015,05,26,00,57,0.00
2015,05,26,00,58,0.00
2015,05,26,00,59,0.00
2015,05,26,01,00,0.00
2015,05,26,01,01,0.00
2015,05,26,01,02,0.00
2015,05,26,01,03,0.00
2015,05,26,01,04,0.00
2015,05,26,01,05,0.00
2015,05,26,01,06,0.00
2015,05,26,01,07,0.00
2015,05,26,01,08,0.00
2015,05,26,01,09,0.00
2015,05,26,01,10,0.00
2015,05,26,01,11,0.00
2015,05,26,01,12,0.00
2015,05,26,01,13,0.00
2015,05,26,01,14,0.00
2015,05,26,01,15,0.00
2015,05,26,01,16,0.00
2015,05,26,01,17,0.00
2015,05,26,01,18,0.00
2015,05,26,01,19,0.00
2015,05,26,01,20,0.00
2015,05,26,01,21,0.00
2015,05,26,01,22,0.00
2015,05,26,01,23,0.00
2015,05,26,01,24,0.00
2015,05,26,01,25,0.00
2015,05,26,01,26,0.00
2015,05,26,01,27,0.00
2015,05,26,01,28,0.00
2015,05,26,01,29,0.00
2015,05,26,01,30,0.00
2015,05,26,01,31,0.00
2015,05,26,01,32,0.00
2015,05,26,01,33,0.00
2015,05,26,01,34,0.00
2015,05,26,01,35,0.00
2015,05,26,01,36,0.00
2015,05,26,01,37,0.00
2015,05,26,01,38,0.00
2015,05,26,01,39,0.00
2015,05,26,01,40,0.00
2015,05,26,01,41,0.00
2015,05,26,01,42,0.00
2015,05,26,01,43,0.00
2015,05,26,01,44,0.00
2015,05,26,01,45,0.00
2015,05,26,01,46,0.00
2015,05,26,01,47,0.00
2015,05,26,01,48,0.00
2015,05,26,01,49,0.00
2015,05,26,01,50,0.00
2015,05,26,01,51,0.00
2015,05,26,01,52,0.00
2015,05,26,01,53,0.00
2015,05,26,01,54,0.00
2015,05,26,01,55,0.00
2015,05,26,01,56,0.00
2015,05,26,01,57,0.00
2015,05,26,01,58,0.00
2015,05,26,01,59,0.00
2015,05,26,02,00,0.00
2015,05,26,02,01,0.00
2015,05,26,02,02,0.00
2015,05,26,02,03,0.00
2015,05,26,02,04,0.00
2015,05,26,02,05,0.00
2015,05,26,02,06,0.00
2015,05,26,02,07,0.00
2015,05,26,02,08,0.00
2015,05,26,02,09,0.00
2015,05,26,02,10,0.00
2015,05,26,02,11,0.00
2015,05,26,02,12,0.00
2015,05,26,02,13,0.00
2015,05,26,02,14,0.00
2015,05,26,02,15,0.00
2015,05,26,02,16,0.00
2015,05,26,02,17,0.00
2015,05,26,02,18,0.00
2015,05,26,02,19,0.00
2015,05,26,02,20,0.00
2015,05,26,02,21,0.00
2015,05,26,02,22,0.00
2015,05,26,02,23,0.00
2015,05,26,02,24,0.00
2015,05,26,02,25,0.00
2015,05,26,02,26,0.00
2015,05,26,02,27,0.00
2015,05,26,02,28,0.00
2015,05,26,02,29,0.00
2015,05,26,02,30,0.00
2015,05,26,02,31,0.00
2015,05,26,02,32,0.00
2015,05,26,02,33,0.00
2015,05,26,02,34,0.00
2015,05,26,02,35,0.00
2015,05,26,02,36,0.00
2015,05,26,02,37,0.00
2015,05,26,02,38,0.00
2015,05,26,02,39,0.00
2015,05,26,02,40,0.00
2015,05,26,02,41,0.00
2015,05,26,02,42,0.00
2015,05,26,02,43,0.00
2015,05,26,02,44,0.00
2015,05,26,02,45,0.00
2015,05,26,02,46,0.00
2015,05,26,02,47,0.00
2015,05,26,02,48,0.00
2015,05,26,02,49,0.00
2015,05,26,02,50,0.00
2015,05,26,02,51,0.00
2015,05,26,02,52,0.00
2015,05,26,02,53,0.00
2015,05,26,02,54,0.00
2015,05,26,02,55,0.00
2015,05,26,02,56,0.00
2015,05,26,02,57,0.00
2015,05,26,02,58,0.00
2015,05,26,02,59,0.00
2015,05,26,03,00,0.00
2015,05,26,03,01,0.00
2015,05,26,03,02,0.00
2015,05,26,03,03,0.00
2015,05,26,03,04,0.00
2015,05,26,03,05,0.00
2015,05,26,03,06,0.00
2015,05,26,03,07,0.00
2015,05,26,03,08,0.00
2015,05,26,03,09,0.00
2015,05,26,03,10,0.00
2015,05,26,03,11,0.00
2015,05,26,03,12,0.00
2015,05,26,03,13,0.00
2015,05,26,03,14,0.00
2015,05,26,03,15,0.00
2015,05,26,03,16,0.00
2015,05,26,03,17,0.00
2015,05,26,03,18,0.00
2015,05,26,03,19,0.00
2015,05,26,03,20,0.00
2015,05,26,03,21,0.00
2015,05,26,03,22,0.00
2015,05,26,03,23,0.00
2015,05,26,03,24,0.00
2015,05,26,03,25,0.00
2015,05,26,03,26,0.00
2015,05,26,03,27,0.00
2015,05,26,03,28,0.00
2015,05,26,03,29,0.00
2015,05,26,03,30,0.00
2015,05,26,03,31,0.00
2015,05,26,03,32,0.00
2015,05,26,03,33,0.00
2015,05,26,03,34,0.00
2015,05,26,03,35,0.00
2015,05,26,03,36,0.00
2015,05,26,03,37,0.00
2015,05,26,03,38,0.00
2015,05,26,03,39,0.00
2015,05,26,03,40,0.00
2015,05,26,03,41,0.00
2015,05,26,03,42,0.00
2015,05,26,03,43,0.00
2015,05,26,03,44,0.00
2015,05,26,03,45,0.00
2015,05,26,03,46,0.00
2015,05,26,03,47,0.00
2015,05,26,03,48,0.00
2015,05,26,03,49,0.00
2015,05,26,03,50,0.00
2015,05,26,03,51,0.00
2015,05,26,03,52,0.00
2015,05,26,03,53,0.00
2015,05,26,03,54,0.00
2015,05,26,03,55,0.00
2015,05,26,03,56,0.00
2015,05,26,03,57,0.00
2015,05,26,03,58,0.00
2015,05,26,03,59,0.00
2015,05,26,04,00,0.00
2015,05,26,04,01,0.00
2015,05,26,04,02,0.00
2015,05,26,04,03,0.00
2015,05,26,04,04,0.00
2015,05,26,04,05,0.00
2015,05,26,04,06,0.00
2015,05,26,04,07,0.00
2015,05,26,04,08,0.00
2015,05,26,04,09,0.00
2015,05,26,04,10,0.00
2015,05,26,04,11,0.00
2015,05,26,04,12,0.00
2015,05,26,04,13,0.00
2015,05,26,04,14,0.00
2015,05,26,04,15,0.00
2015,05,26,04,16,0.00
2015,05,26,04,17,0.00
2015,05,26,04,18,0.00
2015,05,26,04,19,0.00
2015,05,26,04,20,0.00
2015,05,26,04,21,0.00
2015,05,26,04,22,0.00
2015,05,26,04,23,0.00
2015,05,26,04,24,0.00
2015,05,26,04,25,0.00
2015,05,26,04,26,0.00
2015,05,26,04,27,0.00
2015,05,26,04,28,0.00
2015,05,26,04,29,0.00
2015,05,26,04,30,0.00
2015,05,26,04,31,0.00
2015,05,26,04,32,0.00
2015,05,26,04,33,0.00
2015,05,26,04,34,0.00
2015,05,26,04,35,0.00
2015,05,26,04,36,0.00
2015,05,26,04,37,0.00
2015,05,26,04,38,0.00
2015,05,26,04,39,0.00
2015,05,26,04,40,0.00
2015,05,26,04,41,0.00
2015,05,26,04,42,0.00
2015,05,26,04,43,0.00
2015,05,26,04,44,0.00
2015,05,26,04,45,0.00
2015,05,26,04,46,0.00
2015,05,26,04,47,0.00
2015,05,26,04,48,0.00
2015,05,26,04,49,0.00
2015,05,26,04,50,0.00
2015,05,26,04,51,0.00
2015,05,26,04,52,0.00
2015,05,26,04,53,0.00
2015,05,26,04,54,0.00
2015,05,26,04,55,0.00
2015,05,26,04,56,0.00
2015,05,26,04,57,0.00
2015,05,26,04,58,0.00
2015,05,26,04,59,0.00
2015,05,26,05,00,0.00
2015,05,26,05,01,0.00
2015,05,26,05,02,0.00
2015,05,26,05,03,0.00
2015,05,26,05,04,0.00
2015,05,26,05,05,0.00
2015,05,26,05,06,0.00
2015,05,26,05,07,0.00
2015,05,26,05,08,0.00
2015,05,26,05,09,0.00
2015,05,26,05,10,0.00
2015,05,26,05,11,0.00
2015,05,26,05,12,0.00
2015,05,26,05,13,0.00
2015,05,26,05,14,0.00
2015,05,26,05,15,0.00
2015,05,26,05,16,0.00
2015,05,26,05,17,0.00
2015,05,26,05,18,0.00
2015,05,26,05,19,0.00
2015,05,26,05,20,0.00
2015,05,26,05,21,0.00
2015,05,26,05,22,0.00
2015,05,26,05,23,0.00
2015,05,26,05,24,0.00
2015,05,26,05,25,0.00
2015,05,26,05,26,0.00
2015,05,26,05,27,0.00
2015,05,26,05,28,0.00
2015,05,26,05,29,0.00
2015,05,26,05,30,4.10
2015,05,26,05,31,5.00
2015,05,26,05,32,5.00
2015,05,26,05,33,5.00
2015,05,26,05,34,5.00
2015,05,26,05,35,6.50
2015,05,26,05,36,7.00
2015,05,26,05,37,7.00
2015,05,26,05,38,7.00
2015,05,26,05,39,7.90
2015,05,26,05,40,9.00
2015,05,26,05,41,9.00
2015,05,26,05,42,9.10
2015,05,26,05,43,11.00
2015,05,26,05,44,11.00
2015,05,26,05,45,11.00
2015,05,26,05,46,11.00
2015,05,26,05,47,11.80
2015,05,26,05,48,12.00
2015,05,26,05,49,12.00
2015,05,26,05,50,12.00
2015,05,26,05,51,13.00
2015,05,26,05,52,14.00
2015,05,26,05,53,14.00
2015,05,26,05,54,14.00
2015,05,26,05,55,14.50
2015,05,26,05,56,16.00
2015,05,26,05,57,16.00
2015,05,26,05,58,16.00
2015,05,26,05,59,17.60
2015,05,26,06,00,18.00
2015,05,26,06,01,18.00
2015,05,26,06,02,18.40
2015,05,26,06,03,19.00
2015,05,26,06,04,19.00
2015,05,26,06,05,20.70
2015,05,26,06,06,23.00
2015,05,26,06,07,23.00
2015,05,26,06,08,23.90
2015,05,26,06,09,25.00
2015,05,26,06,10,25.00
2015,05,26,06,11,25.00
2015,05,26,06,12,25.00
2015,05,26,06,13,25.30
2015,05,26,06,14,26.00
2015,05,26,06,15,26.00
2015,05,26,06,16,27.50
2015,05,26,06,17,28.00
2015,05,26,06,18,28.00
2015,05,26,06,19,28.00
2015,05,26,06,20,29.00
2015,05,26,06,21,30.00
2015,05,26,06,22,31.50
2015,05,26,06,23,32.90
2015,05,26,06,24,33.40
2015,05,26,06,25,35.00
2015,05,26,06,26,36.00
2015,05,26,06,27,38.20
2015,05,26,06,28,39.80
2015,05,26,06,29,41.90
2015,05,26,06,30,44.00
2015,05,26,06,31,44.00
2015,05,26,06,32,44.00
2015,05,26,06,33,44.00
2015,05,26,06,34,45.50
2015,05,26,06,35,47.10
2015,05,26,06,36,49.00
2015,05,26,06,37,49.70
2015,05,26,06,38,51.00
2015,05,26,06,39,51.00
2015,05,26,06,40,51.00
2015,05,26,06,41,51.00
2015,05,26,06,42,50.50
2015,05,26,06,43,49.00
2015,05,26,06,44,48.00
2015,05,26,06,45,47.00
2015,05,26,06,46,47.00
2015,05,26,06,47,47.00
2015,05,26,06,48,47.00
2015,05,26,06,49,47.90
2015,05,26,06,50,49.00
2015,05,26,06,51,49.00
2015,05,26,06,52,49.00
2015,05,26,06,53,49.00
2015,05,26,06,54,49.00
2015,05,26,06,55,49.00
2015,05,26,06,56,50.10
2015,05,26,06,57,52.40
2015,05,26,06,58,54.00
2015,05,26,06,59,56.40
2015,05,26,07,00,58.60
2015,05,26,07,01,60.00
2015,05,26,07,02,61.30
2015,05,26,07,03,62.80
2015,05,26,07,04,65.00
2015,05,26,07,05,69.20
2015,05,26,07,06,70.60
2015,05,26,07,07,73.00
2015,05,26,07,08,75.90
2015,05,26,07,09,78.50
2015,05,26,07,10,80.90
2015,05,26,07,11,83.00
2015,05,26,07,12,83.30
2015,05,26,07,13,84.00
2015,05,26,07,14,84.00
2015,05,26,07,15,83.20
2015,05,26,07,16,83.00
2015,05,26,07,17,83.20
2015,05,26,07,18,84.00
2015,05,26,07,19,86.00
2015,05,26,07,20,90.00
2015,05,26,07,21,95.90
2015,05,26,07,22,100.30
2015,05,26,07,23,105.90
2015,05,26,07,24,109.80
2015,05,26,07,25,112.00
2015,05,26,07,26,113.70
2015,05,26,07,27,114.00
2015,05,26,07,28,116.20
2015,05,26,07,29,118.00
2015,05,26,07,30,118.80
2015,05,26,07,31,120.50
2015,05,26,07,32,122.30
2015,05,26,07,33,126.30
2015,05,26,07,34,128.30
2015,05,26,07,35,129.40
2015,05,26,07,36,127.50
2015,05,26,07,37,125.90
2015,05,26,07,38,122.10
2015,05,26,07,39,118.40
2015,05,26,07,40,115.60
2015,05,26,07,41,113.70
2015,05,26,07,42,113.00
2015,05,26,07,43,113.00
2015,05,26,07,44,113.80
2015,05,26,07,45,115.80
2015,05,26,07,46,118.50
2015,05,26,07,47,121.60
2015,05,26,07,48,124.60
2015,05,26,07,49,127.60
2015,05,26,07,50,129.50
2015,05,26,07,51,131.80
2015,05,26,07,52,132.00
2015,05,26,07,53,132.70
2015,05,26,07,54,134.00
2015,05,26,07,55,134.00
2015,05,26,07,56,134.80
2015,05,26,07,57,135.20
2015,05,26,07,58,137.50
2015,05,26,07,59,140.10
2015,05,26,08,00,144.20
2015,05,26,08,01,148.00
2015,05,26,08,02,152.20
2015,05,26,08,03,156.00
2015,05,26,08,04,158.50
2015,05,26,08,05,159.20
2015,05,26,08,06,156.90
2015,05,26,08,07,155.30
2015,05,26,08,08,153.40
2015,05,26,08,09,152.70
2015,05,26,08,10,151.00
2015,05,26,08,11,150.20
2015,05,26,08,12,147.40
2015,05,26,08,13,144.60
2015,05,26,08,14,142.30
2015,05,26,08,15,144.30
2015,05,26,08,16,146.90
2015,05,26,08,17,150.70
2015,05,26,08,18,157.30
2015,05,26,08,19,163.90
2015,05,26,08,20,170.20
2015,05,26,08,21,174.40
2015,05,26,08,22,176.60
2015,05,26,08,23,178.00
2015,05,26,08,24,178.60
2015,05,26,08,25,180.50
2015,05,26,08,26,185.90
2015,05,26,08,27,195.00
2015,05,26,08,28,207.30
2015,05,26,08,29,217.90
2015,05,26,08,30,225.50
2015,05,26,08,31,225.50
2015,05,26,08,32,220.40
2015,05,26,08,33,218.00
2015,05,26,08,34,219.00
2015,05,26,08,35,221.00
2015,05,26,08,36,222.20
2015,05,26,08,37,221.50
2015,05,26,08,38,219.90
2015,05,26,08,39,217.60
2015,05,26,08,40,214.80
2015,05,26,08,41,211.00
2015,05,26,08,42,205.70
2015,05,26,08,43,199.90
2015,05,26,08,44,193.00
2015,05,26,08,45,189.10
2015,05,26,08,46,185.60
2015,05,26,08,47,185.60
2015,05,26,08,48,188.90
2015,05,26,08,49,194.00
2015,05,26,08,50,200.80
2015,05,26,08,51,207.20
2015,05,26,08,52,212.30
2015,05,26,08,53,216.30
2015,05,26,08,54,220.00
2015,05,26,08,55,221.00
2015,05,26,08,56,221.00
2015,05,26,08,57,221.60
2015,05,26,08,58,223.90
2015,05,26,08,59,227.30
2015,05,26,09,00,231.10
2015,05,26,09,01,236.50
2015,05,26,09,02,241.90
2015,05,26,09,03,247.50
2015,05,26,09,04,254.00
2015,05,26,09,05,262.50
2015,05,26,09,06,271.70
2015,05,26,09,07,277.50
2015,05,26,09,08,279.00
2015,05,26,09,09,277.40
2015,05,26,09,10,270.70
2015,05,26,09,11,261.40
2015,05,26,09,12,251.80
2015,05,26,09,13,244.30
2015,05,26,09,14,238.50
2015,05,26,09,15,235.90
2015,05,26,09,16,230.50
2015,05,26,09,17,220.90
2015,05,26,09,18,210.70
2015,05,26,09,19,204.10
2015,05,26,09,20,199.80
2015,05,26,09,21,199.00
2015,05,26,09,22,199.00
2015,05,26,09,23,200.90
2015,05,26,09,24,205.20
2015,05,26,09,25,211.70
2015,05,26,09,26,224.40
2015,05,26,09,27,242.10
2015,05,26,09,28,259.30
2015,05,26,09,29,275.20
2015,05,26,09,30,285.50
2015,05,26,09,31,284.80
2015,05,26,09,32,283.00
2015,05,26,09,33,285.00
2015,05,26,09,34,295.60
2015,05,26,09,35,315.60
2015,05,26,09,36,340.00
2015,05,26,09,37,359.70
2015,05,26,09,38,362.80
2015,05,26,09,39,358.60
2015,05,26,09,40,355.90
2015,05,26,09,41,356.50
2015,05,26,09,42,358.70
2015,05,26,09,43,360.00
2015,05,26,09,44,360.00
2015,05,26,09,45,360.90
2015,05,26,09,46,362.00
2015,05,26,09,47,372.70
2015,05,26,09,48,391.00
2015,05,26,09,49,405.80
2015,05,26,09,50,415.30
2015,05,26,09,51,413.60
2015,05,26,09,52,399.60
2015,05,26,09,53,387.40
2015,05,26,09,54,374.90
2015,05,26,09,55,370.80
2015,05,26,09,56,355.20
2015,05,26,09,57,351.00
2015,05,26,09,58,351.30
2015,05,26,09,59,354.40
2015,05,26,10,00,358.90
2015,05,26,10,01,362.40
2015,05,26,10,02,364.70
2015,05,26,10,03,366.50
2015,05,26,10,04,367.00
2015,05,26,10,05,367.00
2015,05,26,10,06,368.90
2015,05,26,10,07,369.50
2015,05,26,10,08,371.80
2015,05,26,10,09,373.50
2015,05,26,10,10,371.90
2015,05,26,10,11,363.30
2015,05,26,10,12,349.10
2015,05,26,10,13,336.40
2015,05,26,10,14,327.90
2015,05,26,10,15,323.30
2015,05,26,10,16,319.10
2015,05,26,10,17,315.50
2015,05,26,10,18,308.30
2015,05,26,10,19,303.20
2015,05,26,10,20,301.40
2015,05,26,10,21,304.30
2015,05,26,10,22,312.50
2015,05,26,10,23,317.70
2015,05,26,10,24,316.70
2015,05,26,10,25,308.10
2015,05,26,10,26,296.90
2015,05,26,10,27,288.90
2015,05,26,10,28,284.00
2015,05,26,10,29,287.90
2015,05,26,10,30,303.60
2015,05,26,10,31,322.00
2015,05,26,10,32,342.60
2015,05,26,10,33,357.90
2015,05,26,10,34,365.00
2015,05,26,10,35,366.90
2015,05,26,10,36,366.20
2015,05,26,10,37,368.40
2015,05,26,10,38,372.40
2015,05,26,10,39,378.70
2015,05,26,10,40,386.60
2015,05,26,10,41,391.60
2015,05,26,10,42,391.00
2015,05,26,10,43,385.10
2015,05,26,10,44,375.50
2015,05,26,10,45,365.00
2015,05,26,10,46,356.30
2015,05,26,10,47,350.20
2015,05,26,10,48,350.00
2015,05,26,10,49,350.00
2015,05,26,10,50,349.00
2015,05,26,10,51,346.60
2015,05,26,10,52,345.20
2015,05,26,10,53,340.90
2015,05,26,10,54,338.10
2015,05,26,10,55,335.10
2015,05,26,10,56,331.70
2015,05,26,10,57,331.30
2015,05,26,10,58,333.70
2015,05,26,10,59,339.30
2015,05,26,11,00,341.50
2015,05,26,11,01,343.00
2015,05,26,11,02,344.60
2015,05,26,11,03,352.10
2015,05,26,11,04,365.40
2015,05,26,11,05,383.90
2015,05,26,11,06,401.70
2015,05,26,11,07,416.70
2015,05,26,11,08,428.10
2015,05,26,11,09,436.90
2015,05,26,11,10,454.00
2015,05,26,11,11,488.10
2015,05,26,11,12,531.00
2015,05,26,11,13,575.30
2015,05,26,11,14,589.80
2015,05,26,11,15,585.40
2015,05,26,11,16,586.70
2015,05,26,11,17,588.50
2015,05,26,11,18,600.50
2015,05,26,11,19,612.00
2015,05,26,11,20,608.20
2015,05,26,11,21,605.20
2015,05,26,11,22,608.50
2015,05,26,11,23,628.50
2015,05,26,11,24,594.40
2015,05,26,11,25,576.20
2015,05,26,11,26,570.30
2015,05,26,11,27,570.00
2015,05,26,11,28,555.70
2015,05,26,11,29,531.80
2015,05,26,11,30,519.00
2015,05,26,11,31,525.50
2015,05,26,11,32,531.00
2015,05,26,11,33,536.70
2015,05,26,11,34,543.00
2015,05,26,11,35,543.00
2015,05,26,11,36,537.70
2015,05,26,11,37,527.90
2015,05,26,11,38,524.90
2015,05,26,11,39,514.90
2015,05,26,11,40,504.00
2015,05,26,11,41,506.30
2015,05,26,11,42,515.20
2015,05,26,11,43,523.10
2015,05,26,11,44,529.70
2015,05,26,11,45,533.60
2015,05,26,11,46,540.10
2015,05,26,11,47,544.50
2015,05,26,11,48,551.10
2015,05,26,11,49,551.10
2015,05,26,11,50,555.70
2015,05,26,11,51,563.40
2015,05,26,11,52,566.50
2015,05,26,11,53,584.00
2015,05,26,11,54,608.40
2015,05,26,11,55,648.80
2015,05,26,11,56,683.00
2015,05,26,11,57,679.90
2015,05,26,11,58,630.20
2015,05,26,11,59,648.70
2015,05,26,12,00,677.00
2015,05,26,12,01,710.90
2015,05,26,12,02,735.30
2015,05,26,12,03,723.40
2015,05,26,12,04,751.00
2015,05,26,12,05,697.40
2015,05,26,12,06,606.40
2015,05,26,12,07,636.20
2015,05,26,12,08,669.00
2015,05,26,12,09,696.60
2015,05,26,12,10,731.10
2015,05,26,12,11,703.30
2015,05,26,12,12,665.80
2015,05,26,12,13,733.30
2015,05,26,12,14,751.20
2015,05,26,12,15,835.70
2015,05,26,12,16,798.30
2015,05,26,12,17,679.60
2015,05,26,12,18,680.00
2015,05,26,12,19,680.20
2015,05,26,12,20,642.30
2015,05,26,12,21,636.00
2015,05,26,12,22,647.00
2015,05,26,12,23,672.30
2015,05,26,12,24,705.30
2015,05,26,12,25,717.00
2015,05,26,12,26,682.20
2015,05,26,12,27,762.30
2015,05,26,12,28,836.80
2015,05,26,12,29,902.30
2015,05,26,12,30,899.40
2015,05,26,12,31,879.00
2015,05,26,12,32,1328.20
2015,05,26,12,33,1371.00
2015,05,26,12,34,1134.50
2015,05,26,12,35,683.00
2015,05,26,12,36,696.90
2015,05,26,12,37,717.30
2015,05,26,12,38,723.80
2015,05,26,12,39,765.90
2015,05,26,12,40,791.40
2015,05,26,12,41,857.00
2015,05,26,12,42,910.20
2015,05,26,12,43,931.70
2015,05,26,12,44,911.30
2015,05,26,12,45,715.00
2015,05,26,12,46,715.00
2015,05,26,12,47,663.50
2015,05,26,12,48,581.30
2015,05,26,12,49,623.80
2015,05,26,12,50,681.90
2015,05,26,12,51,638.10
2015,05,26,12,52,513.70
2015,05,26,12,53,544.80
2015,05,26,12,54,589.50
2015,05,26,12,55,599.00
2015,05,26,12,56,737.70
2015,05,26,12,57,801.00
2015,05,26,12,58,995.00
2015,05,26,12,59,995.00
2015,05,26,13,00,995.00
2015,05,26,13,01,790.00
2015,05,26,13,02,729.10
2015,05,26,13,03,598.30
2015,05,26,13,04,564.30
2015,05,26,13,05,567.20
2015,05,26,13,06,597.50
2015,05,26,13,07,621.90
2015,05,26,13,08,656.00
2015,05,26,13,09,656.00
2015,05,26,13,10,656.00
2015,05,26,13,11,578.70
2015,05,26,13,12,539.30
2015,05,26,13,13,565.30
2015,05,26,13,14,524.00
2015,05,26,13,15,533.40
2015,05,26,13,16,555.00
2015,05,26,13,17,555.00
2015,05,26,13,18,521.20
2015,05,26,13,19,584.20
2015,05,26,13,20,592.00
2015,05,26,13,21,592.00
2015,05,26,13,22,592.00
2015,05,26,13,23,592.00
2015,05,26,13,24,575.00
2015,05,26,13,25,570.00
2015,05,26,13,26,676.50
2015,05,26,13,27,1080.20
2015,05,26,13,28,1118.00
2015,05,26,13,29,1118.00
2015,05,26,13,30,615.70
2015,05,26,13,31,531.60
2015,05,26,13,32,548.00
2015,05,26,13,33,548.00
2015,05,26,13,34,600.70
2015,05,26,13,35,686.30
2015,05,26,13,36,630.70
2015,05,26,13,37,653.80
2015,05,26,13,38,874.00
2015,05,26,13,39,874.00
2015,05,26,13,40,874.00
2015,05,26,13,41,964.00
2015,05,26,13,42,1010.70
2015,05,26,13,43,1011.00
2015,05,26,13,44,975.30
2015,05,26,13,45,861.00
2015,05,26,13,46,924.00
2015,05,26,13,47,967.50
2015,05,26,13,48,969.60
2015,05,26,13,49,977.40
2015,05,26,13,50,979.00
2015,05,26,13,51,979.00
2015,05,26,13,52,987.90
2015,05,26,13,53,1009.70
2015,05,26,13,54,983.80
2015,05,26,13,55,987.60
2015,05,26,13,56,974.80
2015,05,26,13,57,928.50
2015,05,26,13,58,881.00
2015,05,26,13,59,819.20
2015,05,26,14,00,793.10
2015,05,26,14,01,600.20
2015,05,26,14,02,600.60
2015,05,26,14,03,661.60
2015,05,26,14,04,653.30
2015,05,26,14,05,638.00
2015,05,26,14,06,847.10
2015,05,26,14,07,830.20
2015,05,26,14,08,654.90
2015,05,26,14,09,554.90
2015,05,26,14,10,514.30
2015,05,26,14,11,498.80
2015,05,26,14,12,503.10
2015,05,26,14,13,579.80
2015,05,26,14,14,585.00
2015,05,26,14,15,585.00
2015,05,26,14,16,725.70
2015,05,26,14,17,782.00
2015,05,26,14,18,782.00
2015,05,26,14,19,782.00
2015,05,26,14,20,837.80
2015,05,26,14,21,916.00
2015,05,26,14,22,916.00
2015,05,26,14,23,936.70
2015,05,26,14,24,971.00
2015,05,26,14,25,1178.00
2015,05,26,14,26,1178.00
2015,05,26,14,27,828.10
2015,05,26,14,28,559.00
2015,05,26,14,29,559.00
2015,05,26,14,30,914.70
2015,05,26,14,31,918.00
2015,05,26,14,32,918.00
2015,05,26,14,33,918.00
2015,05,26,14,34,918.00
2015,05,26,14,35,918.00
2015,05,26,14,36,909.10
2015,05,26,14,37,867.00
2015,05,26,14,38,856.10
2015,05,26,14,39,842.00
2015,05,26,14,40,842.00
2015,05,26,14,41,833.90
2015,05,26,14,42,749.00
2015,05,26,14,43,813.00
2015,05,26,14,44,926.00
2015,05,26,14,45,904.00
2015,05,26,14,46,889.70
2015,05,26,14,47,816.00
2015,05,26,14,48,858.60
2015,05,26,14,49,849.10
2015,05,26,14,50,846.00
2015,05,26,14,51,843.50
2015,05,26,14,52,838.90
2015,05,26,14,53,837.20
2015,05,26,14,54,828.60
2015,05,26,14,55,823.60
2015,05,26,14,56,820.70
2015,05,26,14,57,821.70
2015,05,26,14,58,823.80
2015,05,26,14,59,815.80
2015,05,26,15,00,812.00
2015,05,26,15,01,813.70
2015,05,26,15,02,814.90
2015,05,26,15,03,815.40
2015,05,26,15,04,812.70
2015,05,26,15,05,810.80
2015,05,26,15,06,816.90
2015,05,26,15,07,822.90
2015,05,26,15,08,832.00
2015,05,26,15,09,841.40
2015,05,26,15,10,851.80
2015,05,26,15,11,868.10
2015,05,26,15,12,899.60
2015,05,26,15,13,905.40
2015,05,26,15,14,940.40
2015,05,26,15,15,1012.20
2015,05,26,15,16,962.70
2015,05,26,15,17,898.30
2015,05,26,15,18,824.00
2015,05,26,15,19,796.30
2015,05,26,15,20,706.80
2015,05,26,15,21,724.60
2015,05,26,15,22,739.70
2015,05,26,15,23,646.20
2015,05,26,15,24,615.60
2015,05,26,15,25,568.50
2015,05,26,15,26,534.20
2015,05,26,15,27,507.10
2015,05,26,15,28,483.40
2015,05,26,15,29,464.40
2015,05,26,15,30,447.70
2015,05,26,15,31,435.50
2015,05,26,15,32,426.80
2015,05,26,15,33,416.90
2015,05,26,15,34,409.70
2015,05,26,15,35,402.20
2015,05,26,15,36,393.40
2015,05,26,15,37,381.00
2015,05,26,15,38,367.80
2015,05,26,15,39,354.90
2015,05,26,15,40,350.40
2015,05,26,15,41,352.00
2015,05,26,15,42,350.40
2015,05,26,15,43,350.70
2015,05,26,15,44,362.70
2015,05,26,15,45,372.20
2015,05,26,15,46,386.00
2015,05,26,15,47,402.00
2015,05,26,15,48,399.60
2015,05,26,15,49,397.50
2015,05,26,15,50,373.40
2015,05,26,15,51,342.80
2015,05,26,15,52,314.60
2015,05,26,15,53,305.80
2015,05,26,15,54,298.20
2015,05,26,15,55,341.30
2015,05,26,15,56,323.70
2015,05,26,15,57,321.40
2015,05,26,15,58,323.00
2015,05,26,15,59,323.00
2015,05,26,16,00,515.70
2015,05,26,16,01,740.60
2015,05,26,16,02,726.40
2015,05,26,16,03,714.60
2015,05,26,16,04,706.90
2015,05,26,16,05,701.90
2015,05,26,16,06,694.50
2015,05,26,16,07,691.40
2015,05,26,16,08,693.00
2015,05,26,16,09,692.60
2015,05,26,16,10,688.30
2015,05,26,16,11,685.20
2015,05,26,16,12,681.90
2015,05,26,16,13,680.00
2015,05,26,16,14,679.20
2015,05,26,16,15,680.00
2015,05,26,16,16,678.60
2015,05,26,16,17,675.80
2015,05,26,16,18,675.90
2015,05,26,16,19,671.50
2015,05,26,16,20,665.10
2015,05,26,16,21,658.50
2015,05,26,16,22,652.70
2015,05,26,16,23,651.90
2015,05,26,16,24,652.60
2015,05,26,16,25,652.90
2015,05,26,16,26,658.30
2015,05,26,16,27,660.50
2015,05,26,16,28,657.00
2015,05,26,16,29,656.60
2015,05,26,16,30,654.80
2015,05,26,16,31,654.00
2015,05,26,16,32,655.70
2015,05,26,16,33,659.60
2015,05,26,16,34,663.00
2015,05,26,16,35,667.00
2015,05,26,16,36,684.40
2015,05,26,16,37,700.60
2015,05,26,16,38,704.60
2015,05,26,16,39,697.80
2015,05,26,16,40,674.90
2015,05,26,16,41,649.00
2015,05,26,16,42,632.10
2015,05,26,16,43,622.70
2015,05,26,16,44,615.40
2015,05,26,16,45,610.50
2015,05,26,16,46,603.10
2015,05,26,16,47,596.60
2015,05,26,16,48,592.70
2015,05,26,16,49,589.70
2015,05,26,16,50,586.80
2015,05,26,16,51,583.10
2015,05,26,16,52,578.90
2015,05,26,16,53,577.00
2015,05,26,16,54,574.30
2015,05,26,16,55,571.40
2015,05,26,16,56,569.70
2015,05,26,16,57,565.50
2015,05,26,16,58,563.60
2015,05,26,16,59,560.90
2015,05,26,17,00,556.10
2015,05,26,17,01,554.20
2015,05,26,17,02,550.20
2015,05,26,17,03,549.50
2015,05,26,17,04,548.90
2015,05,26,17,05,547.20
2015,05,26,17,06,542.00
2015,05,26,17,07,540.10
2015,05,26,17,08,537.40